Change the Weather History Date:

Monday, October 10, 2011

  Actual Average (LRAR) Record (LRAR)
Temperature  
Mean Temperature 46 °F -  
Max Temperature 59 °F 59 °F 80 °F (2001)
Min Temperature 34 °F 40 °F 35 °F (2010)
Degree Days  
Heating Degree Days 18    
Moisture  
Dew Point 36 °F    
Average Humidity 67    
Maximum Humidity 93    
Minimum Humidity 30    
Precipitation  
Precipitation 0.00 in 0.04 in - ()
Sea Level Pressure  
Sea Level Pressure 30.09 in    
Wind  
Wind Speed 6 mph ()    
Max Wind Speed 9 mph    
Max Gust Speed -    
Visibility 7.1 miles    
Events      
Averages and records for this station are not official NWS values.
T = Trace of Precipitation, MM = Missing Value Source: Averaged Metar Reports

Daily Weather History Graph

Daily Weather History Graph

Search for Another Location

Airport or City:

Trip Planner

Search our weather history database for the weather conditions in past years. The results will help you decide how hot, cold, wet, or windy it might be!

Date:

Astronomy

Oct. 10, 2011 Rise Set
Actual Time 6:49 AM CEST 6:03 PM CEST
Civil Twilight 6:19 AM CEST 6:33 PM CEST
Nautical Twilight 5:44 AM CEST 7:08 PM CEST
Astronomical Twilight 5:09 AM CEST 7:43 PM CEST
Moon 4:59 PM CEST (10/10) 5:10 AM CEST (10/10)
Length of Visible Light 12h 14m
Length of Day
11h 14m
Waxing Gibbous, 97% of the Moon is Illuminated
Oct 10
Waxing Gibbous
Oct 12
Full
Oct 20
Last Quarter
Oct 26
New
Nov 2
First Quarter

Hourly Weather History & Observations

Time (CEST) Temp. Windchill Dew Point Humidity Pressure Visibility Wind Dir Wind Speed Gust Speed Precip Events Conditions
12:45 AM 42.8 °F 38.0 °F 37.4 °F 81% 30.06 in - NNW 8.1 mph - N/A   Clear
1:45 AM 41.0 °F 35.8 °F 35.6 °F 81% 30.09 in - NW 8.1 mph - N/A   Clear
2:00 AM 41 °F - 36 °F 77% 30.09 in 12 mi NW 8.9 mph - -   Partly Cloudy
2:45 AM 39.2 °F 33.6 °F 35.6 °F 87% 30.09 in - NNW 8.1 mph - N/A   Clear
3:45 AM 39.2 °F 33.6 °F 35.6 °F 87% 30.09 in - NW 8.1 mph - N/A   Clear
4:45 AM 39.2 °F 33.6 °F 35.6 °F 87% 30.09 in - NW 8.1 mph - N/A   Clear
5:45 AM 39.2 °F 33.6 °F 35.6 °F 87% 30.09 in - NNW 8.1 mph - N/A   Clear
6:15 AM 37.4 °F 32.8 °F 33.8 °F 87% 30.09 in - NNW 5.8 mph - N/A   Clear
6:45 AM 35.6 °F 32.8 °F 33.8 °F 93% 30.09 in - NW 3.5 mph - N/A   Clear
7:15 AM 35.6 °F 32.8 °F 32.0 °F 87% 30.09 in - WNW 3.5 mph - N/A   Clear
7:45 AM 37.4 °F - 33.8 °F 87% 30.09 in - NW 2.3 mph - N/A   Clear
8:00 AM 37 °F - 35 °F 87% 30.12 in 9 mi NW 2.2 mph - -   Partly Cloudy
8:15 AM 39.2 °F 37.0 °F 37.4 °F 93% 30.09 in - NNW 3.5 mph - N/A   Clear
8:45 AM 42.8 °F 38.0 °F 39.2 °F 87% 30.09 in - NW 8.1 mph - N/A   Clear
9:45 AM 48.2 °F - 41.0 °F 76% 30.12 in - NNW 8.1 mph - N/A   Clear
10:15 AM 50.0 °F - 39.2 °F 66% 30.12 in - NNW 6.9 mph - N/A   Clear
10:45 AM 53.6 °F - 39.2 °F 58% 30.12 in 6.2 mi NNW 6.9 mph - N/A   Partly Cloudy
11:15 AM 53.6 °F - 39.2 °F 58% 30.12 in 6.2 mi NNW 6.9 mph - N/A   Partly Cloudy
11:45 AM 55.4 °F - 37.4 °F 51% 30.12 in 6.2 mi North 5.8 mph - N/A   Partly Cloudy
12:15 PM 55.4 °F - 37.4 °F 51% 30.09 in 6.2 mi NNW 4.6 mph - N/A   Scattered Clouds
12:45 PM 55.4 °F - 37.4 °F 51% 30.09 in 6.2 mi WNW 6.9 mph - N/A   Scattered Clouds
1:15 PM 57.2 °F - 35.6 °F 44% 30.09 in 6.2 mi WNW 9.2 mph - N/A   Scattered Clouds
1:45 PM 57.2 °F - 33.8 °F 41% 30.09 in 6.2 mi WNW 9.2 mph - N/A   Scattered Clouds
2:00 PM 57 °F - 34 °F 30% 30.09 in 37 mi WNW 8.9 mph - -   Partly Cloudy
2:15 PM 57.2 °F - 33.8 °F 41% 30.09 in 6.2 mi NW 8.1 mph - N/A   Scattered Clouds
2:45 PM 59.0 °F - 35.6 °F 42% 30.06 in - NW 8.1 mph - N/A   Clear
3:15 PM 59.0 °F - 33.8 °F 39% 30.06 in - West 6.9 mph - N/A   Clear
3:45 PM 59.0 °F - 33.8 °F 39% 30.06 in - NNW 9.2 mph - N/A   Clear
4:15 PM 59.0 °F - 33.8 °F 39% 30.06 in - NNW 6.9 mph - N/A   Clear
4:45 PM 57.2 °F - 35.6 °F 44% 30.06 in - NW 5.8 mph - N/A   Clear
5:15 PM 57.2 °F - 37.4 °F 48% 30.06 in - West 8.1 mph - N/A   Clear
5:45 PM 55.4 °F - 37.4 °F 51% 30.06 in - WNW 6.9 mph - N/A   Clear
6:15 PM 51.8 °F - 35.6 °F 54% 30.06 in - WNW 6.9 mph - N/A   Clear
6:45 PM 50.0 °F - 35.6 °F 58% 30.06 in - WNW 6.9 mph - N/A   Clear
7:15 PM 46.4 °F 45.2 °F 35.6 °F 66% 30.09 in - WNW 3.5 mph - N/A   Clear
7:45 PM 46.4 °F - 35.6 °F 66% 30.09 in - West 2.3 mph - N/A   Clear
8:00 PM 47 °F - 36 °F 56% 30.09 in 25 mi West 2.2 mph - -   Partly Cloudy
8:15 PM 42.8 °F - 35.6 °F 76% 30.09 in - West 2.3 mph - N/A   Clear
8:45 PM 42.8 °F - 35.6 °F 76% 30.09 in - West 2.3 mph - N/A   Clear
9:15 PM 41.0 °F - 35.6 °F 81% 30.09 in - West 2.3 mph - N/A   Clear
9:45 PM 42.8 °F - 35.6 °F 76% 30.09 in - SSW 1.2 mph - N/A   Clear
10:45 PM 41.0 °F 37.1 °F 37.4 °F 87% 30.09 in - SSE 5.8 mph - N/A   Clear
11:45 PM 37.4 °F 34.9 °F 33.8 °F 87% 30.09 in - WSW 3.5 mph - N/A   Clear